Temperature
14 14 14 14 14 14 14 13 13 13 13 13 13 13 13 13 13 13 13 13 13 13 12 12 12 12 12 12 12 12 12 11 11 11 11 11 11 11 11 11 11 11 11
14 13 13 13 13 13 13 13 13 13 13 13 13 13 13 13 13 13 13 13 12 12 12 12 12 12 12 12 12 11 11 11 11 11 11 10 11 11 11 10 10 11 11
13 13 13 13 13 13 13 13 13 13 13 13 13 13 13 13 13 12 12 12 12 12 12 12 12 12 12 12 12 11 11 11 11 11 11 10 10 10 10 10 10 10 10
13 13 13 13 13 13 13 13 13 13 13 12 12 12 12 12 12 12 12 12 12 12 12 12 12 12 12 11 11 11 11 11 11 10 10 10 10 10 10 10 10 10 10
13 13 13 13 13 13 13 13 13 12 12 12 12 12 12 12 12 12 12 12 12 12 12 12 11 11 11 11 11 11 11 11 10 10 10 10 10 10 10 10 10 10 10
13 13 13 12 12 12 12 12 12 12 12 12 12 12 12 12 12 12 12 12 11 11 11 11 11 11 11 11 11 11 11 10 10 10 10 10 10 10 10 9 9 9 9
12 12 12 12 12 12 12 11 12 11 11 11 11 11 11 11 12 12 12 12 11 11 11 11 11 11 11 11 11 11 10 10 10 10 10 10 10 9 9 9 9 9 9
12 11 11 11 11 11 11 11 11 11 11 11 11 11 11 11 11 11 11 11 11 11 11 11 11 11 11 11 10 10 10 10 10 10 9 9 9 9 9 9 9 9 9
11 11 11 11 11 11 11 11 11 11 11 11 11 11 11 11 11 11 11 11 11 10 10 10 10 10 10 10 10 10 10 10 10 9 9 9 9 9 9 9 9 9 9
11 11 11 11 10 10 10 10 10 10 10 10 10 10 10 10 10 11 11 11 10 10 10 10 10 10 10 10 10 10 10 10 9 9 9 9 9 9 9 9 9 9 8
11 11 11 10 10 10 10 10 10 10 10 10 10 10 10 10 10 10 10 10 10 10 10 10 10 9 9 9 9 9 9 9 9 9 9 9 9 9 9 8 8 8 8
10 10 10 10 10 10 10 9 9 9 9 10 10 9 9 9 9 9 9 9 9 9 9 9 9 9 9 9 9 9 9 9 8 8 8 8 8 8 8 8 8 8 8
10 10 10 9 9 9 9 9 9 9 9 9 9 9 9 9 9 9 9 9 9 9 9 9 9 9 9 9 9 9 8 8 8 8 8 8 8 8 8 8 8 8 8
9 9 9 9 9 9 9 9 9 9 8 8 8 9 9 9 9 9 9 9 9 9 9 8 8 8 8 8 8 8 8 8 8 8 8 8 8 8 8 8 8 8 8
8 8 8 8 8 8 8 8 8 8 8 8 8 8 8 8 8 8 8 8 8 8 8 8 8 8 8 8 8 8 8 8 8 7 7 7 7 7 7 7 7 7 7
8 8 8 8 7 8 7 7 8 8 8 8 8 8 8 8 8 8 8 8 8 8 7 7 7 7 7 7 7 7 7 7 7 7 7 7 7 7 7 7 7 7 7
8 7 7 7 7 7 7 7 7 7 7 7 7 7 7 7 7 7 7 7 7 7 7 7 7 7 7 6 6 6 6 6 6 6 6 6 6 6 6 6 6 6 6
7 7 7 7 7 7 7 7 7 7 7 7 7 7 7 7 7 7 7 7 7 6 6 6 6 6 6 6 6 6 6 6 6 6 6 6 6 6 6 6 6 6 6
6 6 6 6 6 6 6 6 6 6 6 6 6 7 7 7 7 7 6 6 6 6 6 6 6 6 6 6 5 5 5 5 5 5 5 5 5 5 5 5 5 5 5
6 6 6 6 6 6 6 6 6 6 6 6 6 6 6 6 6 6 6 6 6 6 6 6 5 5 5 5 5 5 5 5 5 5 5 5 5 5 5 5 5 5 5
5 5 5 5 5 5 5 6 6 5 5 5 5 6 6 6 6 6 6 6 5 6 5 5 5 5 5 5 5 5 5 4 4 4 4 4 4 4 4 4 4 4 4
5 4 4 5 5 5 5 5 5 5 5 5 5 5 5 5 5 5 5 5 5 5 5 5 5 5 5 4 4 4 4 4 4 4 4 4 4 4 4 4 4 4 4
4 4 4 4 4 4 4 4 4 4 4 4 4 4 4 4 4 4 5 5 4 4 4 4 4 4 4 4 4 4 4 4 4 4 3 3 3 3 3 3 3 3 3
4 4 4 4 4 4 4 4 4 4 4 4 4 4 4 4 4 4 4 4 4 4 4 4 4 3 3 3 3 3 3 3 3 3 3 3 3 3 3 3 3 3 3
3 3 3 3 3 3 3 3 3 3 3 3 3 3 3 3 3 3 3 3 3 3 3 3 3 3 3 3 3 3 3 3 3 3 2 2 2 2 2 2 2 2 2
3 3 3 3 3 2 2 3 3 3 3 3 3 3 3 3 3 3 3 3 3 3 3 3 3 3 2 2 2 2 2 2 2 2 2 2 2 2 2 2 2 2 2
Wind_Speed
2 2 2 2 2 2 1 1 2 2 2 3 2 2 3 2 2 2 2 1 1 1 1 1 1 1 1 1 1 1 1 1 1 1 1 0 2 2 3 3 3 3 4
3 2 2 2 2 2 2 1 1 2 2 2 2 1 2 3 3 3 2 2 1 1 1 1 1 1 1 0 0 0 0 1 2 1 1 0 0 1 2 2 2 2 3
2 3 2 2 2 2 2 2 1 1 2 1 1 1 2 2 2 2 3 2 2 2 1 1 1 1 1 1 1 0 0 1 1 1 1 1 0 1 1 1 1 2 2
3 2 2 2 2 1 1 1 1 1 2 2 1 1 1 1 2 1 2 1 1 1 2 1 1 2 2 1 1 1 1 1 1 1 1 1 1 1 1 1 0 0 0
2 2 1 1 1 1 1 1 1 1 1 1 1 1 0 0 0 0 1 1 2 1 1 2 2 2 2 2 1 1 1 2 1 1 1 1 1 1 1 1 1 1 1
1 1 1 1 1 1 1 1 1 1 0 0 0 1 0 1 1 1 1 1 2 2 2 2 2 2 3 2 0 1 2 3 3 2 2 2 2 2 2 1 1 1 1
1 1 1 1 1 1 1 1 1 1 0 0 1 1 1 1 1 1 2 2 3 2 2 1 1 1 2 2 1 1 2 2 4 3 3 4 4 3 3 2 2 2 3
1 1 1 2 1 1 2 1 1 1 1 1 1 1 1 1 2 2 3 2 2 1 1 2 2 2 1 1 2 1 2 1 3 3 3 4 3 4 4 4 4 2 2
1 1 2 2 2 2 2 2 2 1 1 1 1 1 1 2 1 1 1 2 2 2 1 1 2 2 1 1 2 2 2 2 4 4 4 4 4 4 4 2 2 1 2
1 2 2 2 3 3 3 2 2 2 2 2 2 2 2 1 1 1 1 1 2 2 1 2 1 1 1 1 2 2 2 3 2 2 2 3 3 4 5 4 4 3 2
1 1 1 2 3 3 3 2 2 2 2 1 2 2 2 2 3 2 1 1 2 2 2 1 2 2 2 3 3 3 4 3 2 2 2 2 2 2 3 4 4 3 3
1 0 1 1 2 2 2 3 2 2 2 2 2 2 1 2 3 4 4 4 2 2 2 2 2 3 4 5 5 5 5 2 1 2 2 2 3 3 2 4 4 4 4
1 1 1 1 1 1 2 2 2 3 3 3 2 2 2 2 2 4 5 6 5 3 3 3 4 5 5 5 6 6 4 2 2 2 3 3 3 3 3 2 3 3 2
1 1 1 1 1 1 1 2 2 2 2 2 3 2 2 2 1 2 2 3 4 3 3 3 4 5 4 4 4 4 3 3 3 3 3 3 2 2 2 2 2 2 1
2 1 1 1 1 2 2 2 3 3 3 3 2 2 2 2 3 2 2 2 2 2 2 1 1 1 2 2 3 3 3 3 3 2 2 3 2 2 2 2 2 2 2
2 1 1 1 1 1 1 2 2 3 3 4 4 3 2 3 3 3 4 4 4 3 1 1 2 2 3 3 3 3 3 3 3 3 3 3 3 3 3 2 2 3 3
2 2 1 1 2 2 2 2 2 3 3 4 5 4 4 3 4 4 5 5 4 3 2 3 3 3 3 3 3 3 3 3 3 3 3 4 3 3 3 3 3 3 3
2 2 2 2 2 2 2 3 3 3 3 3 4 6 5 5 5 5 4 2 3 4 3 4 4 4 3 3 3 3 3 2 2 3 3 3 3 3 3 3 3 4 4
2 2 2 2 2 2 2 2 3 3 2 2 1 2 5 5 5 5 4 3 4 4 4 4 4 4 4 4 4 3 3 2 2 2 2 3 3 3 3 4 3 5 4
2 3 3 2 2 2 3 2 2 2 3 2 3 2 2 2 2 3 4 4 4 4 4 4 3 3 3 3 3 3 3 3 3 3 3 3 3 3 4 4 4 4 4
2 3 4 3 2 3 3 2 2 2 3 2 3 2 2 2 3 4 4 4 4 4 4 3 3 3 3 3 3 3 4 3 3 3 3 3 3 3 3 4 4 4 4
3 2 2 2 2 2 3 3 2 2 3 3 2 2 3 3 3 3 3 3 3 3 3 3 3 3 3 3 3 3 3 3 3 3 3 3 3 3 3 3 3 3 3
3 3 3 3 2 3 4 3 3 3 3 3 3 2 3 3 3 3 3 2 2 2 2 2 2 2 2 2 2 2 3 3 3 3 3 3 3 4 3 4 4 4 4
4 3 3 3 3 3 3 3 3 3 3 3 3 3 3 2 2 2 2 2 2 1 1 1 2 2 2 1 2 2 2 2 2 2 3 3 3 3 3 3 3 4 4
4 3 3 3 3 3 3 3 3 4 4 3 3 2 2 2 2 2 2 2 2 1 1 1 1 2 2 2 2 2 3 3 3 3 3 3 3 3 3 3 3 3 3
3 3 3 3 3 3 3 3 3 3 3 3 3 2 2 2 2 2 2 2 2 2 1 1 2 2 2 3 3 3 3 4 4 5 3 3 3 3 3 3 3 4 4
Wind_Direction
166 174 168 171 169 124 138 194 182 184 183 194 203 188 171 163 157 154 178 215 199 144 150 184 189 157 104 52 43 34 46 105 145 288 324 82 78 89 91 104 100 110 121
174 180 184 174 156 159 180 183 180 186 187 188 196 199 185 170 165 170 192 202 170 149 189 195 201 151 125 131 83 96 134 155 156 204 276 223 151 136 122 115 102 106 123
174 183 190 188 177 182 183 179 167 175 175 190 191 207 200 175 172 203 195 191 185 181 183 200 192 149 162 162 149 63 155 119 129 162 239 263 288 136 108 100 111 121 140
175 183 193 194 181 184 181 167 167 188 182 184 203 190 205 180 182 206 196 172 182 185 177 186 186 167 154 153 159 172 140 120 124 150 200 228 235 213 149 174 322 291 221
185 178 186 185 163 167 168 145 141 145 159 164 189 172 94 147 183 257 209 199 204 208 195 195 198 156 118 121 163 193 184 182 178 185 217 225 231 215 219 217 222 244 268
181 168 135 147 138 145 159 143 128 116 93 91 194 162 159 265 264 255 245 245 230 215 219 209 193 148 121 113 144 226 204 196 195 199 226 217 236 235 220 220 220 222 262
159 154 153 170 180 164 148 119 126 159 151 305 269 222 189 260 253 240 255 259 243 229 212 191 197 163 141 140 206 258 272 237 206 209 215 225 222 219 203 213 237 242 239
124 157 176 184 182 166 160 170 195 184 178 195 219 221 198 273 279 240 250 244 239 239 208 183 173 150 139 140 181 210 250 261 247 236 227 231 224 208 205 208 217 239 269
159 196 197 184 181 181 186 199 202 196 205 214 190 206 210 252 297 306 247 245 235 240 225 152 144 149 197 166 174 208 234 271 278 266 266 253 251 232 217 188 191 195 260
208 217 212 200 190 193 198 202 207 210 208 214 203 201 204 195 223 314 251 229 240 253 236 210 203 188 247 221 202 206 229 256 256 269 273 267 240 221 223 202 188 197 233
251 234 228 216 199 194 192 196 209 211 211 226 222 212 200 192 202 226 240 225 244 257 252 232 217 221 247 251 244 221 238 253 237 229 238 242 225 213 220 218 199 191 209
5 316 269 241 224 207 186 196 204 199 216 227 232 226 209 207 204 221 234 247 267 252 255 246 237 241 251 253 245 249 251 259 238 227 240 240 228 227 234 223 224 218 213
344 333 311 284 256 220 205 207 210 206 211 221 220 225 225 215 203 217 236 254 262 258 255 257 259 255 248 243 243 247 241 231 223 225 236 244 234 229 223 227 233 230 229
335 340 325 329 330 284 236 211 212 213 217 228 225 231 223 209 210 212 228 246 258 266 268 263 258 250 244 248 247 238 230 227 216 223 233 242 237 231 235 225 225 225 248
311 319 337 344 303 291 255 229 218 213 198 215 236 233 226 223 227 221 222 235 243 258 272 269 281 253 235 237 239 235 228 226 228 231 236 246 244 237 238 231 217 210 222
317 334 327 315 287 262 260 279 270 239 229 230 235 233 251 245 229 221 232 244 256 259 248 237 244 244 243 240 242 242 233 227 229 227 229 236 235 234 238 234 225 215 225
314 323 322 307 297 276 264 252 264 265 249 246 238 233 234 250 246 239 242 242 242 220 221 234 235 234 241 242 246 246 245 239 223 219 226 231 234 236 235 230 228 227 228
310 313 307 281 274 265 266 269 263 251 243 249 240 232 234 234 238 237 237 229 237 217 220 229 234 234 234 236 242 250 250 248 233 229 230 229 226 230 230 233 232 233 232
309 301 289 286 283 271 266 268 276 277 264 257 256 247 243 236 235 236 215 223 234 229 229 235 236 233 230 229 233 234 236 236 236 232 236 235 229 228 233 232 234 243 237
326 320 318 304 295 284 276 268 269 273 267 260 250 242 217 213 226 228 221 232 237 234 234 241 243 240 233 228 222 220 226 232 233 233 240 237 234 234 238 236 230 235 236
321 307 302 297 287 284 283 276 274 276 274 261 255 248 221 219 229 230 226 230 236 236 234 237 236 235 233 229 221 221 225 230 229 231 239 242 238 239 242 242 239 235 236
321 305 294 292 297 305 303 293 285 284 282 277 271 266 244 241 239 237 233 232 234 237 232 230 229 227 226 227 223 227 227 225 228 236 241 244 250 253 248 242 247 246 241
317 311 307 305 304 306 300 293 289 281 279 276 270 264 244 244 243 239 240 241 243 241 230 223 224 230 232 247 244 223 220 221 225 232 242 246 248 252 252 248 243 245 247
317 313 309 307 310 302 297 295 291 284 281 279 271 261 255 249 258 264 267 263 260 258 247 224 221 227 233 257 264 254 242 250 242 244 247 249 253 253 251 251 251 251 249
312 309 303 299 300 301 302 305 304 300 294 288 280 275 270 262 263 270 272 272 270 271 276 266 250 242 243 253 266 259 268 269 259 264 258 252 249 250 248 253 258 261 259
314 314 312 311 310 309 306 303 304 305 299 295 288 282 279 276 272 271 270 266 269 258 260 268 264 258 256 257 266 268 270 271 266 263 261 256 241 244 245 251 260 257 257
Height
1516 1517 1518 1519 1520 1520 1521 1521 1522 1522 1523 1523 1524 1524 1525 1526 1526 1527 1528 1529 1530 1530 1531 1531 1532 1532 1532 1532 1532 1532 1532 1533 1532 1532 1533 1533 1532 1532 1531 1530 1530 1529 1529
1514 1515 1516 1517 1518 1518 1519 1519 1520 1520 1521 1521 1522 1522 1522 1523 1524 1525 1526 1527 1528 1528 1529 1529 1530 1530 1530 1530 1531 1531 1531 1531 1531 1531 1531 1531 1531 1531 1530 1529 1529 1528 1528
1512 1513 1514 1515 1515 1516 1517 1517 1518 1518 1518 1519 1519 1520 1520 1521 1522 1523 1524 1525 1526 1527 1527 1527 1528 1528 1528 1528 1529 1529 1529 1529 1529 1529 1529 1529 1529 1529 1529 1528 1528 1527 1527
1509 1510 1511 1512 1513 1514 1514 1515 1515 1516 1516 1516 1517 1517 1518 1519 1520 1521 1522 1523 1524 1524 1525 1525 1525 1526 1526 1526 1526 1526 1527 1527 1527 1527 1527 1527 1527 1527 1527 1527 1526 1526 1526
1507 1507 1508 1510 1511 1511 1512 1512 1513 1513 1513 1514 1514 1515 1515 1516 1517 1518 1520 1521 1521 1522 1522 1523 1523 1524 1524 1524 1524 1524 1524 1524 1524 1524 1525 1525 1525 1525 1525 1525 1525 1524 1524
1504 1505 1506 1507 1508 1508 1509 1510 1510 1510 1511 1511 1512 1512 1513 1513 1515 1516 1517 1518 1519 1519 1520 1520 1521 1521 1521 1521 1521 1521 1522 1522 1522 1522 1522 1522 1522 1522 1523 1523 1523 1522 1522
1501 1502 1503 1504 1504 1505 1506 1507 1507 1508 1508 1508 1509 1509 1510 1511 1512 1513 1514 1515 1515 1516 1517 1517 1518 1518 1518 1518 1518 1519 1519 1519 1520 1520 1519 1519 1520 1520 1520 1520 1520 1520 1520
1499 1499 1500 1500 1500 1501 1503 1504 1504 1505 1505 1506 1506 1506 1507 1508 1508 1509 1510 1511 1512 1512 1513 1514 1514 1515 1515 1515 1515 1515 1515 1516 1516 1516 1516 1517 1517 1517 1517 1518 1518 1518 1518
1496 1496 1497 1497 1498 1499 1499 1500 1501 1502 1502 1503 1503 1503 1504 1504 1505 1506 1507 1507 1508 1509 1510 1510 1511 1511 1511 1512 1512 1511 1511 1511 1512 1513 1513 1513 1514 1514 1514 1515 1515 1515 1514
1493 1494 1494 1495 1496 1496 1497 1498 1499 1499 1499 1500 1500 1500 1501 1501 1502 1502 1503 1503 1504 1505 1506 1507 1507 1508 1508 1508 1508 1508 1508 1508 1508 1508 1509 1509 1510 1510 1510 1511 1511 1511 1511
1491 1492 1492 1493 1493 1494 1494 1495 1496 1496 1497 1497 1497 1497 1498 1498 1498 1498 1499 1499 1500 1501 1501 1502 1503 1504 1504 1504 1504 1504 1504 1505 1505 1505 1505 1505 1505 1506 1506 1507 1508 1508 1508
1489 1489 1490 1490 1491 1491 1491 1491 1492 1493 1493 1493 1494 1494 1494 1495 1495 1495 1495 1496 1496 1497 1497 1498 1499 1500 1500 1500 1500 1501 1501 1501 1501 1501 1501 1501 1501 1502 1502 1503 1504 1504 1504
1487 1487 1487 1487 1487 1488 1488 1488 1488 1489 1489 1490 1490 1490 1490 1491 1491 1491 1491 1492 1492 1493 1493 1494 1495 1495 1496 1496 1496 1497 1497 1497 1496 1496 1496 1497 1497 1498 1498 1499 1499 1500 1500
1484 1484 1484 1484 1484 1484 1484 1484 1485 1485 1486 1486 1486 1487 1487 1487 1487 1487 1487 1488 1488 1489 1489 1490 1490 1491 1491 1491 1491 1492 1492 1492 1492 1492 1492 1493 1493 1493 1494 1494 1494 1495 1495
1482 1482 1482 1482 1481 1481 1481 1481 1481 1482 1482 1483 1483 1484 1484 1484 1484 1484 1484 1484 1484 1485 1485 1485 1485 1485 1486 1486 1486 1487 1487 1487 1487 1488 1488 1488 1488 1488 1489 1489 1490 1490 1490
1480 1480 1479 1479 1479 1478 1478 1478 1478 1479 1479 1480 1480 1481 1481 1481 1481 1481 1481 1481 1481 1481 1481 1480 1480 1480 1481 1481 1481 1481 1482 1482 1483 1483 1483 1483 1483 1484 1484 1485 1485 1485 1486
1478 1477 1477 1476 1476 1476 1475 1475 1475 1475 1476 1476 1477 1477 1477 1477 1477 1477 1477 1477 1477 1477 1476 1476 1476 1476 1476 1476 1476 1477 1477 1478 1478 1479 1479 1479 1479 1479 1480 1480 1480 1481 1481
1475 1474 1474 1473 1473 1473 1472 1472 1472 1471 1471 1471 1472 1473 1473 1473 1473 1473 1473 1473 1473 1472 1472 1472 1472 1472 1472 1472 1472 1473 1473 1473 1474 1474 1474 1474 1474 1474 1475 1475 1475 1476 1476
1472 1471 1471 1470 1470 1470 1470 1469 1469 1468 1468 1467 1468 1468 1469 1468 1468 1469 1469 1468 1467 1467 1467 1468 1468 1468 1468 1468 1468 1468 1468 1469 1469 1469 1469 1469 1469 1470 1470 1470 1470 1471 1471
1468 1468 1467 1467 1467 1467 1466 1466 1466 1465 1465 1464 1464 1464 1464 1464 1464 1464 1464 1464 1463 1463 1463 1463 1463 1463 1463 1463 1464 1464 1464 1464 1464 1464 1464 1464 1464 1464 1465 1465 1465 1465 1465
1465 1465 1464 1464 1463 1463 1463 1463 1462 1462 1461 1461 1460 1461 1461 1460 1460 1459 1459 1459 1459 1458 1458 1458 1458 1459 1459 1459 1459 1459 1459 1459 1459 1459 1459 1459 1459 1460 1460 1460 1460 1460 1460
1462 1462 1461 1461 1460 1460 1459 1459 1459 1458 1458 1457 1457 1457 1456 1456 1456 1455 1455 1454 1454 1454 1454 1454 1454 1454 1454 1454 1454 1454 1454 1454 1454 1455 1455 1455 1455 1455 1455 1455 1455 1455 1455
1459 1459 1458 1458 1457 1456 1456 1455 1455 1454 1454 1453 1453 1452 1452 1452 1451 1451 1450 1450 1450 1449 1449 1449 1449 1449 1449 1449 1449 1449 1449 1449 1450 1450 1450 1450 1450 1450 1450 1450 1450 1450 1450
1457 1456 1456 1455 1454 1453 1452 1452 1451 1451 1450 1449 1449 1448 1448 1447 1446 1446 1446 1445 1445 1445 1445 1445 1444 1444 1444 1444 1445 1445 1445 1445 1445 1445 1445 1445 1445 1446 1446 1445 1445 1445 1445
1454 1453 1452 1452 1451 1450 1449 1448 1447 1447 1446 1446 1445 1444 1443 1443 1442 1442 1441 1441 1440 1440 1440 1440 1440 1440 1440 1440 1440 1440 1440 1440 1440 1441 1441 1441 1441 1441 1441 1440 1440 1440 1440
1451 1450 1449 1448 1447 1446 1446 1445 1444 1443 1442 1441 1441 1440 1439 1438 1438 1437 1437 1436 1436 1435 1435 1435 1435 1434 1434 1435 1435 1435 1435 1435 1436 1436 1436 1436 1435 1435 1435 1435 1435 1435 1435